Overview Statistics Trail Chart Weather Telemetry Raw packets
 

This is the latest recevied weather packets stored in our database for station/object Dunnningn. If no packets are shown the sender has not sent any weather packets the latest 10 day(s).

<< 9 10 11 12 13 14 15 >>
Time Temp. Humidity Pressure Rain* Wind** Luminosity Snow
1788152530 14.44° C 91% 1016.1 hPa 4.32 mm - - -
1788150730 15° C 91% 1015.7 hPa 4.32 mm - - -
1788148929 15° C 92% 1015.7 hPa 4.32 mm - - -
1788147129 15° C 91% 1015.6 hPa 4.32 mm - - -
1788145329 15.56° C 90% 1015.3 hPa 4.32 mm - - -
1788143529 15.56° C 89% 1015.1 hPa 4.32 mm - - -
1788141729 15.56° C 89% 1015 hPa 4.32 mm - - -
1788139931 16.11° C 89% 1014.8 hPa 4.32 mm - - -
1788138129 16.11° C 90% 1014.8 hPa 4.32 mm - - -
1788136332 16.11° C 90% 1015.3 hPa 4.32 mm - - -
1788134532 16.67° C 88% 1015.1 hPa 4.06 mm - - -
1788132731 17.22° C 84% 1014.6 hPa 3.3 mm - - -
1788130931 17.22° C 78% 1014.4 hPa 0 mm - - -
1788129131 17.22° C 76% 1013.8 hPa 0 mm - - -
1788125531 17.78° C 75% 1014.2 hPa 0 mm - - -
1788123730 18.33° C 73% 1014.5 hPa 0 mm - - -
1788121931 18.89° C 70% 1014.3 hPa 0 mm - - -
1788120131 19.44° C 68% 1014.6 hPa 0 mm - - -
1788118330 20° C 67% 1014.5 hPa 0 mm - - -
1788116531 20.56° C 64% 1014.6 hPa 0 mm - - -
1788114730 21.67° C 60% 1014.5 hPa 0 mm - - -
1788112931 22.22° C 57% 1014.4 hPa 0 mm - - -
1788111130 23.33° C 54% 1014.4 hPa 0 mm - - -
1788109331 23.89° C 51% 1014.5 hPa 0 mm - - -
1788107531 25.56° C 47% 1014.5 hPa 0 mm - - -

* Rain since midnight (hover to see other rain measurements)
** Current wind speed in m/s (hover to see current wind gust speed)